Weather History for Miami, FL

Change the Weather History Date:

Wednesday, January 30, 2013

  Actual Average Record
Temperature  
Mean Temperature 76 °F 69 °F  
Max Temperature 80 °F 77 °F 86 °F (1991)
Min Temperature 71 °F 61 °F 36 °F (1940)
Degree Days  
Heating Degree Days 0 1  
Month to date heating degree days 4 55  
Since 1 July heating degree days 20 92  
Cooling Degree Days 11 5  
Month to date cooling degree days 264 150  
Year to date cooling degree days 264 150  
Growing Degree Days 26 (Base 50)    
Moisture  
Dew Point 65 °F    
Average Humidity 74    
Maximum Humidity 90    
Minimum Humidity 58    
Precipitation  
Precipitation 0.00 in 0.05 in 6.68 in (1926)
Month to date precipitation 0.54 1.56  
Year to date precipitation 0.54 1.56  
Snow  
Snow 0.00 in - - ()
Month to date snowfall 0.0  
Since 1 July snowfall 0.0  
Snow Depth 0.00 in    
Sea Level Pressure  
Sea Level Pressure 30.06 in    
Wind  
Wind Speed 10 mph (SE)    
Max Wind Speed 23 mph    
Max Gust Speed 32 mph    
Visibility 10 miles    
Events Rain    
T = Trace of Precipitation, MM = Missing Value Source: NWS Daily Summary

Daily Weather History Graph

Daily Weather History Graph

Search for Another Location

Airport:

Trip Planner

Search our weather history database for the weather conditions in past years. The results will help you decide how hot, cold, wet, or windy it might be!

Date:

Astronomy

Jan. 30, 2013 Rise Set
Actual Time 7:05 AM EST 6:03 PM EST
Civil Twilight 6:41 AM EST 6:27 PM EST
Nautical Twilight 6:14 AM EST 6:55 PM EST
Astronomical Twilight 5:46 AM EST 7:22 PM EST
Moon 9:30 PM EST (1/30) 8:59 AM EST (1/30)
Length of Visible Light 11h 46m
Length of Day
10h 57m
Waning Gibbous, 88% of the Moon is Illuminated
Jan 30
Waning Gibbous
Feb 3
Last Quarter
Feb 10
New
Feb 17
First Quarter
Feb 25
Full

Hourly Weather History & Observations

Time (EST) Temp. Dew Point Humidity Pressure Visibility Wind Dir Wind Speed Gust Speed Precip Events Conditions
12:53 AM 72.0 °F 64.0 °F 76% 30.13 in 10.0 mi ESE 10.4 mph - N/A   Scattered Clouds
1:53 AM 72.0 °F 64.0 °F 76% 30.12 in 10.0 mi SE 9.2 mph - N/A   Partly Cloudy
2:53 AM 72.0 °F 64.0 °F 76% 30.11 in 10.0 mi ESE 9.2 mph - N/A   Scattered Clouds
3:53 AM 72.0 °F 64.0 °F 76% 30.11 in 10.0 mi ESE 10.4 mph - N/A   Scattered Clouds
4:53 AM 72.0 °F 64.0 °F 76% 30.09 in 10.0 mi ESE 10.4 mph - N/A   Scattered Clouds
5:53 AM 72.0 °F 64.0 °F 76% 30.09 in 10.0 mi SE 9.2 mph - N/A   Scattered Clouds
6:53 AM 71.1 °F 64.0 °F 78% 30.10 in 10.0 mi ESE 8.1 mph - N/A   Partly Cloudy
7:53 AM 73.0 °F 64.0 °F 73% 30.11 in 10.0 mi ESE 10.4 mph - N/A   Partly Cloudy
8:53 AM 75.9 °F 64.0 °F 67% 30.12 in 10.0 mi SSE 12.7 mph - N/A   Partly Cloudy
9:53 AM 77.0 °F 64.0 °F 64% 30.12 in 10.0 mi SE 13.8 mph 21.9 mph N/A   Mostly Cloudy
10:53 AM 78.1 °F 63.0 °F 60% 30.09 in 10.0 mi SSE 13.8 mph 20.7 mph N/A   Scattered Clouds
11:53 AM 78.1 °F 64.0 °F 62% 30.07 in 10.0 mi SE 17.3 mph 25.3 mph N/A   Mostly Cloudy
12:53 PM 78.1 °F 64.9 °F 64% 30.01 in 10.0 mi SE 19.6 mph 29.9 mph N/A   Scattered Clouds
1:45 PM 78.8 °F 64.4 °F 61% 30.00 in 10.0 mi SSE 17.3 mph 27.6 mph N/A   Mostly Cloudy
1:53 PM 78.1 °F 64.9 °F 64% 30.00 in 10.0 mi SSE 16.1 mph 28.8 mph N/A   Mostly Cloudy
2:53 PM 77.0 °F 66.0 °F 69% 30.00 in 10.0 mi South 15.0 mph 24.2 mph N/A   Mostly Cloudy
3:53 PM 78.1 °F 66.0 °F 66% 30.01 in 10.0 mi South 9.2 mph 20.7 mph N/A   Mostly Cloudy
4:53 PM 77.0 °F 66.0 °F 69% 30.03 in 10.0 mi SSE 10.4 mph 16.1 mph N/A   Mostly Cloudy
5:43 PM 75.2 °F 66.2 °F 73% 30.02 in 10.0 mi SSE 9.2 mph 17.3 mph N/A   Mostly Cloudy
5:53 PM 75.9 °F 66.9 °F 74% 30.02 in 10.0 mi South 9.2 mph 16.1 mph N/A   Mostly Cloudy
6:53 PM 75.0 °F 66.9 °F 76% 30.00 in 10.0 mi Variable 4.6 mph - N/A   Partly Cloudy
7:53 PM 73.0 °F 68.0 °F 84% 30.01 in 10.0 mi SSE 5.8 mph - 0.00 in Rain Light Rain
8:53 PM 73.0 °F 68.0 °F 84% 30.03 in 10.0 mi South 3.5 mph - 0.00 in   Partly Cloudy
9:53 PM 73.0 °F 68.0 °F 84% 30.03 in 10.0 mi SSE 4.6 mph - N/A   Partly Cloudy
10:53 PM 72.0 °F 68.0 °F 87% 30.03 in 10.0 mi SSE 4.6 mph - N/A   Partly Cloudy
11:53 PM 72.0 °F 68.0 °F 87% 30.02 in 10.0 mi South 3.5 mph - N/A   Partly Cloudy